Location: Barcelona
(41.3830°N, 2.1830°E)
Time: 23:14:51
(UTC+02:00)

ISS - Pass Details

Date: 21 May 2019
Orbit: 408 x 418 km, 51.6° (Epoch: 26 May)

Event Time Altitude Azimuth Distance (km) Brightness Sun altitude
Rises 00:17:06 0° 288° (WNW) 2,352 0.6 -25.0°
Reaches altitude 10° 00:19:49 10° 312° (NW) 1,492 -0.1 -25.2°
Maximum altitude 00:21:56 16° 351° (N) 1,203 -0.6 -25.4°
Drops below altitude 10° 00:24:02 10° 30° (NNE) 1,497 -0.5 -25.5°
Sets 00:26:47 0° 54° (NE) 2,363 0.2 -25.7°
